Jaipur, India

3:24 AM IST on May 27, 2017 (GMT +0530)
Jaipur

Weather History for VIJP - April, 2014

Change the Weather History Date:

Tuesday, April 22, 2014

  Actual Average Record
Temperature  
Mean Temperature 87 °F -  
Max Temperature 99 °F - - ()
Min Temperature 75 °F - - ()
Cooling Degree Days 22    
Growing Degree Days 37 (Base 50)    
Moisture  
Dew Point 50 °F    
Average Humidity 31    
Maximum Humidity 54    
Minimum Humidity 10    
Precipitation  
Precipitation 0.04 in - - ()
Sea Level Pressure  
Sea Level Pressure 29.96 in    
Wind  
Wind Speed 5 mph ()    
Max Wind Speed 18 mph    
Max Gust Speed 30 mph    
Visibility 2.0 miles    
Events Rain , Thunderstorm    
T = Trace of Precipitation, MM = Missing Value Source: Averaged Metar Reports

Daily Weather History Graph

Daily Weather History Graph

Search for Another Location

Airport or City:

Trip Planner

Search our weather history database for the weather conditions in past years. The results will help you decide how hot, cold, wet, or windy it might be!

Date:

Astronomy

Apr. 22, 2014 Rise Set
Actual Time 5:56 AM IST 6:54 PM IST
Civil Twilight 5:32 AM IST 7:18 PM IST
Nautical Twilight 5:04 AM IST 7:46 PM IST
Astronomical Twilight 4:35 AM IST 8:16 PM IST
Moon 12:43 AM IST (4/22) 12:04 PM IST (4/22)
Length of Visible Light 13h 45m
Length of Day
12h 57m
Waning Gibbous, 51% of the Moon is Illuminated
Apr 22
Waning Gibbous
Apr 22
Last Quarter
Apr 29
New
May 7
First Quarter
May 15
Full

Hourly Weather History & Observations

Time (IST) Temp. Dew Point Humidity Pressure Visibility Wind Dir Wind Speed Gust Speed Precip Events Conditions
12:00 AM 84.2 °F 48.2 °F 29% 29.95 in 2.2 mi Variable 4.6 mph - N/A   Haze
1:00 AM 82.4 °F 51.8 °F 35% 29.92 in 2.2 mi Variable 2.3 mph - N/A   Haze
2:00 AM 80.6 °F 46.4 °F 30% 29.92 in 2.2 mi NE 3.5 mph - N/A   Haze
3:00 AM 80.6 °F 44.6 °F 28% 29.89 in 2.2 mi Calm Calm - N/A   Haze
4:00 AM 80.6 °F 42.8 °F 26% 29.92 in 2.2 mi ENE 5.8 mph - N/A   Haze
5:00 AM 80.6 °F 44.6 °F 28% 29.95 in 2.2 mi Variable 1.2 mph - N/A   Haze
5:30 AM 80 °F 45 °F 19% 29.87 in 1 mi 2.3 mph - -   Haze
6:00 AM 78.8 °F 46.4 °F 32% 29.98 in 2.2 mi WNW 4.6 mph - N/A   Haze
7:00 AM 78.8 °F 46.4 °F 32% 29.98 in 2.2 mi Variable 6.9 mph - N/A   Haze
8:00 AM 82.4 °F 46.4 °F 28% 30.01 in 2.2 mi Variable 5.8 mph - N/A   Haze
8:30 AM 83 °F 53 °F 25% 29.95 in 2 mi NW 9.2 mph - -   Haze
9:00 AM 82.4 °F 51.8 °F 35% 30.04 in 2.2 mi Variable 9.2 mph - N/A   Haze
10:00 AM 86.0 °F 50.0 °F 29% 30.04 in 2.2 mi Variable 8.1 mph - N/A   Haze
11:00 AM 87.8 °F 48.2 °F 25% 30.04 in 2.2 mi ENE 10.4 mph - N/A   Haze
11:30 AM 91 °F 53 °F 18% 29.93 in 2 mi East 9.2 mph - -   Haze
11:30 AM 91.4 °F 46.4 °F 21% 30.04 in 2.2 mi East 10.4 mph - N/A   Haze
12:00 PM 91.4 °F 46.4 °F 21% 30.01 in 2.2 mi East 8.1 mph - N/A   Haze
12:30 PM 91.4 °F 46.4 °F 21% 30.01 in 2.2 mi East 8.1 mph - N/A   Haze
1:00 PM 93.2 °F 46.4 °F 20% 30.01 in 2.2 mi East 8.1 mph - N/A   Haze
2:00 PM 93.2 °F 44.6 °F 19% 29.98 in 2.5 mi Variable 2.3 mph - N/A   Haze
2:30 PM 96 °F 46 °F 10% 29.86 in 2 mi South 5.8 mph - -   Haze
3:30 PM 96.8 °F 42.8 °F 16% 29.92 in 3.1 mi Variable 1.2 mph - N/A   Haze
4:00 PM 95.0 °F 42.8 °F 16% 29.89 in 3.1 mi Variable 4.6 mph - N/A   Haze
5:00 PM 95.0 °F 42.8 °F 16% 29.89 in 3.1 mi Calm Calm - N/A   Haze
5:30 PM 83 °F 54 °F 27% 29.86 in 0 mi NW 16.1 mph - - Rain , Thunderstorm Thunderstorms and Rain
6:00 PM 77.0 °F 57.2 °F 50% 29.98 in 1.6 mi WNW 18.4 mph 29.9 mph N/A   Haze
7:00 PM 75.2 °F 57.2 °F 53% 30.01 in 1.6 mi Variable 10.4 mph - N/A Rain , Thunderstorm Thunderstorms and Rain
7:30 PM 75.2 °F 57.2 °F 53% 29.98 in 1.6 mi NE 8.1 mph - N/A   Haze
8:00 PM 78.8 °F 53.6 °F 42% 29.98 in 1.6 mi NE 8.1 mph - N/A   Haze
8:30 PM 76 °F 58 °F 44% 29.91 in 1 mi SSW 3.5 mph - -   Haze
9:00 PM 77.0 °F 57.2 °F 50% 29.95 in 1.6 mi NNE 4.6 mph - N/A   Haze
10:00 PM 77.0 °F 59.0 °F 54% 29.95 in 1.6 mi Variable 4.6 mph - N/A   Haze
11:00 PM 75.2 °F 55.4 °F 50% 29.95 in 1.6 mi Variable 2.3 mph - N/A   Haze
11:30 PM 75 °F 56 °F 41% 29.90 in 1 mi Calm Calm - -   Haze